Year,Month,Day,Hour,Minute,Value (Times are PST for insolation in W/m^2)
2007,11,07,00,00,0.00
2007,11,07,00,01,0.00
2007,11,07,00,02,0.00
2007,11,07,00,03,0.00
2007,11,07,00,04,0.00
2007,11,07,00,05,0.00
2007,11,07,00,06,0.00
2007,11,07,00,07,0.00
2007,11,07,00,08,0.00
2007,11,07,00,09,0.00
2007,11,07,00,10,0.00
2007,11,07,00,11,0.00
2007,11,07,00,12,0.00
2007,11,07,00,13,0.00
2007,11,07,00,14,0.00
2007,11,07,00,15,0.00
2007,11,07,00,16,0.00
2007,11,07,00,17,0.00
2007,11,07,00,18,0.00
2007,11,07,00,19,0.00
2007,11,07,00,20,0.00
2007,11,07,00,21,0.00
2007,11,07,00,22,0.00
2007,11,07,00,23,0.00
2007,11,07,00,24,0.00
2007,11,07,00,25,0.00
2007,11,07,00,26,0.00
2007,11,07,00,27,0.00
2007,11,07,00,28,0.00
2007,11,07,00,29,0.00
2007,11,07,00,30,0.00
2007,11,07,00,31,0.00
2007,11,07,00,32,0.00
2007,11,07,00,33,0.00
2007,11,07,00,34,0.00
2007,11,07,00,35,0.00
2007,11,07,00,36,0.00
2007,11,07,00,37,0.00
2007,11,07,00,38,0.00
2007,11,07,00,39,0.00
2007,11,07,00,40,0.00
2007,11,07,00,41,0.00
2007,11,07,00,42,0.00
2007,11,07,00,43,0.00
2007,11,07,00,44,0.00
2007,11,07,00,45,0.00
2007,11,07,00,46,0.00
2007,11,07,00,47,0.00
2007,11,07,00,48,0.00
2007,11,07,00,49,0.00
2007,11,07,00,50,0.00
2007,11,07,00,51,0.00
2007,11,07,00,52,0.00
2007,11,07,00,53,0.00
2007,11,07,00,54,0.00
2007,11,07,00,55,0.00
2007,11,07,00,56,0.00
2007,11,07,00,57,0.00
2007,11,07,00,58,0.00
2007,11,07,00,59,0.00
2007,11,07,01,00,0.00
2007,11,07,01,01,0.00
2007,11,07,01,02,0.00
2007,11,07,01,03,0.00
2007,11,07,01,04,0.00
2007,11,07,01,05,0.00
2007,11,07,01,06,0.00
2007,11,07,01,07,0.00
2007,11,07,01,08,0.00
2007,11,07,01,09,0.00
2007,11,07,01,10,0.00
2007,11,07,01,11,0.00
2007,11,07,01,12,0.00
2007,11,07,01,13,0.00
2007,11,07,01,14,0.00
2007,11,07,01,15,0.00
2007,11,07,01,16,0.00
2007,11,07,01,17,0.00
2007,11,07,01,18,0.00
2007,11,07,01,19,0.00
2007,11,07,01,20,0.00
2007,11,07,01,21,0.00
2007,11,07,01,22,0.00
2007,11,07,01,23,0.00
2007,11,07,01,24,0.00
2007,11,07,01,25,0.00
2007,11,07,01,26,0.00
2007,11,07,01,27,0.00
2007,11,07,01,28,0.00
2007,11,07,01,29,0.00
2007,11,07,01,30,0.00
2007,11,07,01,31,0.00
2007,11,07,01,32,0.00
2007,11,07,01,33,0.00
2007,11,07,01,34,0.00
2007,11,07,01,35,0.00
2007,11,07,01,36,0.00
2007,11,07,01,37,0.00
2007,11,07,01,38,0.00
2007,11,07,01,39,0.00
2007,11,07,01,40,0.00
2007,11,07,01,41,0.00
2007,11,07,01,42,0.00
2007,11,07,01,43,0.00
2007,11,07,01,44,0.00
2007,11,07,01,45,0.00
2007,11,07,01,46,0.00
2007,11,07,01,47,0.00
2007,11,07,01,48,0.00
2007,11,07,01,49,0.00
2007,11,07,01,50,0.00
2007,11,07,01,51,0.00
2007,11,07,01,52,0.00
2007,11,07,01,53,0.00
2007,11,07,01,54,0.00
2007,11,07,01,55,0.00
2007,11,07,01,56,0.00
2007,11,07,01,57,0.00
2007,11,07,01,58,0.00
2007,11,07,01,59,0.00
2007,11,07,02,00,0.00
2007,11,07,02,01,0.00
2007,11,07,02,02,0.00
2007,11,07,02,03,0.00
2007,11,07,02,04,0.00
2007,11,07,02,05,0.00
2007,11,07,02,06,0.00
2007,11,07,02,07,0.00
2007,11,07,02,08,0.00
2007,11,07,02,09,0.00
2007,11,07,02,10,0.00
2007,11,07,02,11,0.00
2007,11,07,02,12,0.00
2007,11,07,02,13,0.00
2007,11,07,02,14,0.00
2007,11,07,02,15,0.00
2007,11,07,02,16,0.00
2007,11,07,02,17,0.00
2007,11,07,02,18,0.00
2007,11,07,02,19,0.00
2007,11,07,02,20,0.00
2007,11,07,02,21,0.00
2007,11,07,02,22,0.00
2007,11,07,02,23,0.00
2007,11,07,02,24,0.00
2007,11,07,02,25,0.00
2007,11,07,02,26,0.00
2007,11,07,02,27,0.00
2007,11,07,02,28,0.00
2007,11,07,02,29,0.00
2007,11,07,02,30,0.00
2007,11,07,02,31,0.00
2007,11,07,02,32,0.00
2007,11,07,02,33,0.00
2007,11,07,02,34,0.00
2007,11,07,02,35,0.00
2007,11,07,02,36,0.00
2007,11,07,02,37,0.00
2007,11,07,02,38,0.00
2007,11,07,02,39,0.00
2007,11,07,02,40,0.00
2007,11,07,02,41,0.00
2007,11,07,02,42,0.00
2007,11,07,02,43,0.00
2007,11,07,02,44,0.00
2007,11,07,02,45,0.00
2007,11,07,02,46,0.00
2007,11,07,02,47,0.00
2007,11,07,02,48,0.00
2007,11,07,02,49,0.00
2007,11,07,02,50,0.00
2007,11,07,02,51,0.00
2007,11,07,02,52,0.00
2007,11,07,02,53,0.00
2007,11,07,02,54,0.00
2007,11,07,02,55,0.00
2007,11,07,02,56,0.00
2007,11,07,02,57,0.00
2007,11,07,02,58,0.00
2007,11,07,02,59,0.00
2007,11,07,03,00,0.00
2007,11,07,03,01,0.00
2007,11,07,03,02,0.00
2007,11,07,03,03,0.00
2007,11,07,03,04,0.00
2007,11,07,03,05,0.00
2007,11,07,03,06,0.00
2007,11,07,03,07,0.00
2007,11,07,03,08,0.00
2007,11,07,03,09,0.00
2007,11,07,03,10,0.00
2007,11,07,03,11,0.00
2007,11,07,03,12,0.00
2007,11,07,03,13,0.00
2007,11,07,03,14,0.00
2007,11,07,03,15,0.00
2007,11,07,03,16,0.00
2007,11,07,03,17,0.00
2007,11,07,03,18,0.00
2007,11,07,03,19,0.00
2007,11,07,03,20,0.00
2007,11,07,03,21,0.00
2007,11,07,03,22,0.00
2007,11,07,03,23,0.00
2007,11,07,03,24,0.00
2007,11,07,03,25,0.00
2007,11,07,03,26,0.00
2007,11,07,03,27,0.00
2007,11,07,03,28,0.00
2007,11,07,03,29,0.00
2007,11,07,03,30,0.00
2007,11,07,03,31,0.00
2007,11,07,03,32,0.00
2007,11,07,03,33,0.00
2007,11,07,03,34,0.00
2007,11,07,03,35,0.00
2007,11,07,03,36,0.00
2007,11,07,03,37,0.00
2007,11,07,03,38,0.00
2007,11,07,03,39,0.00
2007,11,07,03,40,0.00
2007,11,07,03,41,0.00
2007,11,07,03,42,0.00
2007,11,07,03,43,0.00
2007,11,07,03,44,0.00
2007,11,07,03,45,0.00
2007,11,07,03,46,0.00
2007,11,07,03,47,0.00
2007,11,07,03,48,0.00
2007,11,07,03,49,0.00
2007,11,07,03,50,0.00
2007,11,07,03,51,0.00
2007,11,07,03,52,0.00
2007,11,07,03,53,0.00
2007,11,07,03,54,0.00
2007,11,07,03,55,0.00
2007,11,07,03,56,0.00
2007,11,07,03,57,0.00
2007,11,07,03,58,0.00
2007,11,07,03,59,0.00
2007,11,07,04,00,0.00
2007,11,07,04,01,0.00
2007,11,07,04,02,0.00
2007,11,07,04,03,0.00
2007,11,07,04,04,0.00
2007,11,07,04,05,0.00
2007,11,07,04,06,0.00
2007,11,07,04,07,0.00
2007,11,07,04,08,0.00
2007,11,07,04,09,0.00
2007,11,07,04,10,0.00
2007,11,07,04,11,0.00
2007,11,07,04,12,0.00
2007,11,07,04,13,0.00
2007,11,07,04,14,0.00
2007,11,07,04,15,0.00
2007,11,07,04,16,0.00
2007,11,07,04,17,0.00
2007,11,07,04,18,0.00
2007,11,07,04,19,0.00
2007,11,07,04,20,0.00
2007,11,07,04,21,0.00
2007,11,07,04,22,0.00
2007,11,07,04,23,0.00
2007,11,07,04,24,0.00
2007,11,07,04,25,0.00
2007,11,07,04,26,0.00
2007,11,07,04,27,0.00
2007,11,07,04,28,0.00
2007,11,07,04,29,0.00
2007,11,07,04,30,0.00
2007,11,07,04,31,0.00
2007,11,07,04,32,0.00
2007,11,07,04,33,0.00
2007,11,07,04,34,0.00
2007,11,07,04,35,0.00
2007,11,07,04,36,0.00
2007,11,07,04,37,0.00
2007,11,07,04,38,0.00
2007,11,07,04,39,0.00
2007,11,07,04,40,0.00
2007,11,07,04,41,0.00
2007,11,07,04,42,0.00
2007,11,07,04,43,0.00
2007,11,07,04,44,0.00
2007,11,07,04,45,0.00
2007,11,07,04,46,0.00
2007,11,07,04,47,0.00
2007,11,07,04,48,0.00
2007,11,07,04,49,0.00
2007,11,07,04,50,0.00
2007,11,07,04,51,0.00
2007,11,07,04,52,0.00
2007,11,07,04,53,0.00
2007,11,07,04,54,0.00
2007,11,07,04,55,0.00
2007,11,07,04,56,0.00
2007,11,07,04,57,0.00
2007,11,07,04,58,0.00
2007,11,07,04,59,0.00
2007,11,07,05,00,0.00
2007,11,07,05,01,0.00
2007,11,07,05,02,0.00
2007,11,07,05,03,0.00
2007,11,07,05,04,0.00
2007,11,07,05,05,0.00
2007,11,07,05,06,0.00
2007,11,07,05,07,0.00
2007,11,07,05,08,0.00
2007,11,07,05,09,0.00
2007,11,07,05,10,0.00
2007,11,07,05,11,0.00
2007,11,07,05,12,0.00
2007,11,07,05,13,0.00
2007,11,07,05,14,0.00
2007,11,07,05,15,0.00
2007,11,07,05,16,0.00
2007,11,07,05,17,0.00
2007,11,07,05,18,0.00
2007,11,07,05,19,0.00
2007,11,07,05,20,0.00
2007,11,07,05,21,0.00
2007,11,07,05,22,0.00
2007,11,07,05,23,0.00
2007,11,07,05,24,0.00
2007,11,07,05,25,0.00
2007,11,07,05,26,0.00
2007,11,07,05,27,0.00
2007,11,07,05,28,0.00
2007,11,07,05,29,0.00
2007,11,07,05,30,0.00
2007,11,07,05,31,0.00
2007,11,07,05,32,0.00
2007,11,07,05,33,0.00
2007,11,07,05,34,0.00
2007,11,07,05,35,0.00
2007,11,07,05,36,0.00
2007,11,07,05,37,0.00
2007,11,07,05,38,0.00
2007,11,07,05,39,0.00
2007,11,07,05,40,0.00
2007,11,07,05,41,0.00
2007,11,07,05,42,0.00
2007,11,07,05,43,0.00
2007,11,07,05,44,0.00
2007,11,07,05,45,0.00
2007,11,07,05,46,0.00
2007,11,07,05,47,0.00
2007,11,07,05,48,0.00
2007,11,07,05,49,0.00
2007,11,07,05,50,0.00
2007,11,07,05,51,0.00
2007,11,07,05,52,0.00
2007,11,07,05,53,0.00
2007,11,07,05,54,0.00
2007,11,07,05,55,0.00
2007,11,07,05,56,0.00
2007,11,07,05,57,0.00
2007,11,07,05,58,0.00
2007,11,07,05,59,0.00
2007,11,07,06,00,0.00
2007,11,07,06,01,0.00
2007,11,07,06,02,0.00
2007,11,07,06,03,0.00
2007,11,07,06,04,0.00
2007,11,07,06,05,0.00
2007,11,07,06,06,0.00
2007,11,07,06,07,0.00
2007,11,07,06,08,0.00
2007,11,07,06,09,0.00
2007,11,07,06,10,0.00
2007,11,07,06,11,0.00
2007,11,07,06,12,0.00
2007,11,07,06,13,0.00
2007,11,07,06,14,0.00
2007,11,07,06,15,0.00
2007,11,07,06,16,0.00
2007,11,07,06,17,0.00
2007,11,07,06,18,0.00
2007,11,07,06,19,0.00
2007,11,07,06,20,0.00
2007,11,07,06,21,0.00
2007,11,07,06,22,0.00
2007,11,07,06,23,0.00
2007,11,07,06,24,0.00
2007,11,07,06,25,0.00
2007,11,07,06,26,0.00
2007,11,07,06,27,0.00
2007,11,07,06,28,0.00
2007,11,07,06,29,0.00
2007,11,07,06,30,0.00
2007,11,07,06,31,0.00
2007,11,07,06,32,0.00
2007,11,07,06,33,0.00
2007,11,07,06,34,0.00
2007,11,07,06,35,0.00
2007,11,07,06,36,0.00
2007,11,07,06,37,0.00
2007,11,07,06,38,0.00
2007,11,07,06,39,0.00
2007,11,07,06,40,0.00
2007,11,07,06,41,0.00
2007,11,07,06,42,0.00
2007,11,07,06,43,0.00
2007,11,07,06,44,0.00
2007,11,07,06,45,0.00
2007,11,07,06,46,0.00
2007,11,07,06,47,0.00
2007,11,07,06,48,0.00
2007,11,07,06,49,0.00
2007,11,07,06,50,0.00
2007,11,07,06,51,0.00
2007,11,07,06,52,0.00
2007,11,07,06,53,0.00
2007,11,07,06,54,0.00
2007,11,07,06,55,0.00
2007,11,07,06,56,0.00
2007,11,07,06,57,0.00
2007,11,07,06,58,0.00
2007,11,07,06,59,0.00
2007,11,07,07,00,0.00
2007,11,07,07,01,0.00
2007,11,07,07,02,0.00
2007,11,07,07,03,0.00
2007,11,07,07,04,0.00
2007,11,07,07,05,0.00
2007,11,07,07,06,0.00
2007,11,07,07,07,0.00
2007,11,07,07,08,0.00
2007,11,07,07,09,0.00
2007,11,07,07,10,0.00
2007,11,07,07,11,0.00
2007,11,07,07,12,0.00
2007,11,07,07,13,0.00
2007,11,07,07,14,0.00
2007,11,07,07,15,0.00
2007,11,07,07,16,0.00
2007,11,07,07,17,0.00
2007,11,07,07,18,0.00
2007,11,07,07,19,0.00
2007,11,07,07,20,0.00
2007,11,07,07,21,0.00
2007,11,07,07,22,0.00
2007,11,07,07,23,0.00
2007,11,07,07,24,0.00
2007,11,07,07,25,0.00
2007,11,07,07,26,0.00
2007,11,07,07,27,0.00
2007,11,07,07,28,0.00
2007,11,07,07,29,0.00
2007,11,07,07,30,0.00
2007,11,07,07,31,0.00
2007,11,07,07,32,0.00
2007,11,07,07,33,0.00
2007,11,07,07,34,0.00
2007,11,07,07,35,0.00
2007,11,07,07,36,0.00
2007,11,07,07,37,0.00
2007,11,07,07,38,0.00
2007,11,07,07,39,5.00
2007,11,07,07,40,5.50
2007,11,07,07,41,7.00
2007,11,07,07,42,8.20
2007,11,07,07,43,9.00
2007,11,07,07,44,9.00
2007,11,07,07,45,11.00
2007,11,07,07,46,11.00
2007,11,07,07,47,11.00
2007,11,07,07,48,11.00
2007,11,07,07,49,11.00
2007,11,07,07,50,11.00
2007,11,07,07,51,12.00
2007,11,07,07,52,12.60
2007,11,07,07,53,14.80
2007,11,07,07,54,16.00
2007,11,07,07,55,17.50
2007,11,07,07,56,18.00
2007,11,07,07,57,18.00
2007,11,07,07,58,17.40
2007,11,07,07,59,16.00
2007,11,07,08,00,14.70
2007,11,07,08,01,14.00
2007,11,07,08,02,12.10
2007,11,07,08,03,11.80
2007,11,07,08,04,11.00
2007,11,07,08,05,11.50
2007,11,07,08,06,12.00
2007,11,07,08,07,12.00
2007,11,07,08,08,13.90
2007,11,07,08,09,14.40
2007,11,07,08,10,16.70
2007,11,07,08,11,19.40
2007,11,07,08,12,22.30
2007,11,07,08,13,24.70
2007,11,07,08,14,28.10
2007,11,07,08,15,30.40
2007,11,07,08,16,32.30
2007,11,07,08,17,33.00
2007,11,07,08,18,33.00
2007,11,07,08,19,36.40
2007,11,07,08,20,42.70
2007,11,07,08,21,50.10
2007,11,07,08,22,55.70
2007,11,07,08,23,56.90
2007,11,07,08,24,53.90
2007,11,07,08,25,49.70
2007,11,07,08,26,47.10
2007,11,07,08,27,47.00
2007,11,07,08,28,47.80
2007,11,07,08,29,47.80
2007,11,07,08,30,44.80
2007,11,07,08,31,40.60
2007,11,07,08,32,38.70
2007,11,07,08,33,37.00
2007,11,07,08,34,37.00
2007,11,07,08,35,35.80
2007,11,07,08,36,33.60
2007,11,07,08,37,32.20
2007,11,07,08,38,27.70
2007,11,07,08,39,25.70
2007,11,07,08,40,25.00
2007,11,07,08,41,25.00
2007,11,07,08,42,25.70
2007,11,07,08,43,28.00
2007,11,07,08,44,30.00
2007,11,07,08,45,30.60
2007,11,07,08,46,32.00
2007,11,07,08,47,30.70
2007,11,07,08,48,28.40
2007,11,07,08,49,25.90
2007,11,07,08,50,22.60
2007,11,07,08,51,20.30
2007,11,07,08,52,19.00
2007,11,07,08,53,19.00
2007,11,07,08,54,20.50
2007,11,07,08,55,21.10
2007,11,07,08,56,23.40
2007,11,07,08,57,25.40
2007,11,07,08,58,27.10
2007,11,07,08,59,29.40
2007,11,07,09,00,31.70
2007,11,07,09,01,35.20
2007,11,07,09,02,37.80
2007,11,07,09,03,41.70
2007,11,07,09,04,45.70
2007,11,07,09,05,51.30
2007,11,07,09,06,57.00
2007,11,07,09,07,63.60
2007,11,07,09,08,69.30
2007,11,07,09,09,70.80
2007,11,07,09,10,70.80
2007,11,07,09,11,66.30
2007,11,07,09,12,63.20
2007,11,07,09,13,65.00
2007,11,07,09,14,65.50
2007,11,07,09,15,66.20
2007,11,07,09,16,63.90
2007,11,07,09,17,65.90
2007,11,07,09,18,68.80
2007,11,07,09,19,68.40
2007,11,07,09,20,63.60
2007,11,07,09,21,58.30
2007,11,07,09,22,54.10
2007,11,07,09,23,51.40
2007,11,07,09,24,51.00
2007,11,07,09,25,53.50
2007,11,07,09,26,57.50
2007,11,07,09,27,60.90
2007,11,07,09,28,62.00
2007,11,07,09,29,62.00
2007,11,07,09,30,62.10
2007,11,07,09,31,63.30
2007,11,07,09,32,65.70
2007,11,07,09,33,68.10
2007,11,07,09,34,72.40
2007,11,07,09,35,76.50
2007,11,07,09,36,81.10
2007,11,07,09,37,84.00
2007,11,07,09,38,84.70
2007,11,07,09,39,86.00
2007,11,07,09,40,86.00
2007,11,07,09,41,84.30
2007,11,07,09,42,82.60
2007,11,07,09,43,78.20
2007,11,07,09,44,75.20
2007,11,07,09,45,72.90
2007,11,07,09,46,72.00
2007,11,07,09,47,72.00
2007,11,07,09,48,70.00
2007,11,07,09,49,69.70
2007,11,07,09,50,68.20
2007,11,07,09,51,65.90
2007,11,07,09,52,65.00
2007,11,07,09,53,66.60
2007,11,07,09,54,70.20
2007,11,07,09,55,74.50
2007,11,07,09,56,76.40
2007,11,07,09,57,77.00
2007,11,07,09,58,77.00
2007,11,07,09,59,77.00
2007,11,07,10,00,77.00
2007,11,07,10,01,76.20
2007,11,07,10,02,74.00
2007,11,07,10,03,75.30
2007,11,07,10,04,76.00
2007,11,07,10,05,74.10
2007,11,07,10,06,69.50
2007,11,07,10,07,66.40
2007,11,07,10,08,64.10
2007,11,07,10,09,62.40
2007,11,07,10,10,62.00
2007,11,07,10,11,62.00
2007,11,07,10,12,62.60
2007,11,07,10,13,66.80
2007,11,07,10,14,73.20
2007,11,07,10,15,77.90
2007,11,07,10,16,82.40
2007,11,07,10,17,80.80
2007,11,07,10,18,74.70
2007,11,07,10,19,68.20
2007,11,07,10,20,62.40
2007,11,07,10,21,55.90
2007,11,07,10,22,49.80
2007,11,07,10,23,45.80
2007,11,07,10,24,41.60
2007,11,07,10,25,39.60
2007,11,07,10,26,39.50
2007,11,07,10,27,40.00
2007,11,07,10,28,40.00
2007,11,07,10,29,40.00
2007,11,07,10,30,39.80
2007,11,07,10,31,38.20
2007,11,07,10,32,37.00
2007,11,07,10,33,40.60
2007,11,07,10,34,47.60
2007,11,07,10,35,61.40
2007,11,07,10,36,70.80
2007,11,07,10,37,77.40
2007,11,07,10,38,77.70
2007,11,07,10,39,77.00
2007,11,07,10,40,69.80
2007,11,07,10,41,62.50
2007,11,07,10,42,60.00
2007,11,07,10,43,61.30
2007,11,07,10,44,64.10
2007,11,07,10,45,66.50
2007,11,07,10,46,68.90
2007,11,07,10,47,69.20
2007,11,07,10,48,70.00
2007,11,07,10,49,70.00
2007,11,07,10,50,70.00
2007,11,07,10,51,80.10
2007,11,07,10,52,85.80
2007,11,07,10,53,88.00
2007,11,07,10,54,87.30
2007,11,07,10,55,86.90
2007,11,07,10,56,90.00
2007,11,07,10,57,95.50
2007,11,07,10,58,103.60
2007,11,07,10,59,110.30
2007,11,07,11,00,116.60
2007,11,07,11,01,124.70
2007,11,07,11,02,132.10
2007,11,07,11,03,136.50
2007,11,07,11,04,141.80
2007,11,07,11,05,136.80
2007,11,07,11,06,123.20
2007,11,07,11,07,109.90
2007,11,07,11,08,98.20
2007,11,07,11,09,87.50
2007,11,07,11,10,81.10
2007,11,07,11,11,78.20
2007,11,07,11,12,75.20
2007,11,07,11,13,74.00
2007,11,07,11,14,75.40
2007,11,07,11,15,76.90
2007,11,07,11,16,83.80
2007,11,07,11,17,90.00
2007,11,07,11,18,90.00
2007,11,07,11,19,102.20
2007,11,07,11,20,113.20
2007,11,07,11,21,117.60
2007,11,07,11,22,123.00
2007,11,07,11,23,122.40
2007,11,07,11,24,119.60
2007,11,07,11,25,115.50
2007,11,07,11,26,111.70
2007,11,07,11,27,107.60
2007,11,07,11,28,103.60
2007,11,07,11,29,102.00
2007,11,07,11,30,101.10
2007,11,07,11,31,98.70
2007,11,07,11,32,95.60
2007,11,07,11,33,98.20
2007,11,07,11,34,105.80
2007,11,07,11,35,108.30
2007,11,07,11,36,106.10
2007,11,07,11,37,105.00
2007,11,07,11,38,105.00
2007,11,07,11,39,108.60
2007,11,07,11,40,108.20
2007,11,07,11,41,103.20
2007,11,07,11,42,97.40
2007,11,07,11,43,92.30
2007,11,07,11,44,90.20
2007,11,07,11,45,86.30
2007,11,07,11,46,84.00
2007,11,07,11,47,84.00
2007,11,07,11,48,84.00
2007,11,07,11,49,85.40
2007,11,07,11,50,86.00
2007,11,07,11,51,91.20
2007,11,07,11,52,93.50
2007,11,07,11,53,95.00
2007,11,07,11,54,92.40
2007,11,07,11,55,85.20
2007,11,07,11,56,77.10
2007,11,07,11,57,69.20
2007,11,07,11,58,64.20
2007,11,07,11,59,60.30
2007,11,07,12,00,58.00
2007,11,07,12,01,55.20
2007,11,07,12,02,54.00
2007,11,07,12,03,53.00
2007,11,07,12,04,53.00
2007,11,07,12,05,53.00
2007,11,07,12,06,53.50
2007,11,07,12,07,56.90
2007,11,07,12,08,61.60
2007,11,07,12,09,62.00
2007,11,07,12,10,60.70
2007,11,07,12,11,57.10
2007,11,07,12,12,56.00
2007,11,07,12,13,59.20
2007,11,07,12,14,62.80
2007,11,07,12,15,65.30
2007,11,07,12,16,75.10
2007,11,07,12,17,76.50
2007,11,07,12,18,73.30
2007,11,07,12,19,72.00
2007,11,07,12,20,72.60
2007,11,07,12,21,86.90
2007,11,07,12,22,103.50
2007,11,07,12,23,119.30
2007,11,07,12,24,131.20
2007,11,07,12,25,140.70
2007,11,07,12,26,153.30
2007,11,07,12,27,156.00
2007,11,07,12,28,154.70
2007,11,07,12,29,153.00
2007,11,07,12,30,144.80
2007,11,07,12,31,133.80
2007,11,07,12,32,132.00
2007,11,07,12,33,131.50
2007,11,07,12,34,129.20
2007,11,07,12,35,125.50
2007,11,07,12,36,119.20
2007,11,07,12,37,112.10
2007,11,07,12,38,102.60
2007,11,07,12,39,92.20
2007,11,07,12,40,83.60
2007,11,07,12,41,78.10
2007,11,07,12,42,70.80
2007,11,07,12,43,65.40
2007,11,07,12,44,63.00
2007,11,07,12,45,64.30
2007,11,07,12,46,70.30
2007,11,07,12,47,78.40
2007,11,07,12,48,79.40
2007,11,07,12,49,72.00
2007,11,07,12,50,64.70
2007,11,07,12,51,63.00
2007,11,07,12,52,65.80
2007,11,07,12,53,74.10
2007,11,07,12,54,87.30
2007,11,07,12,55,97.90
2007,11,07,12,56,106.30
2007,11,07,12,57,113.30
2007,11,07,12,58,117.20
2007,11,07,12,59,125.30
2007,11,07,13,00,129.50
2007,11,07,13,01,125.20
2007,11,07,13,02,118.00
2007,11,07,13,03,113.90
2007,11,07,13,04,107.00
2007,11,07,13,05,108.30
2007,11,07,13,06,105.80
2007,11,07,13,07,102.20
2007,11,07,13,08,102.80
2007,11,07,13,09,105.80
2007,11,07,13,10,105.30
2007,11,07,13,11,99.90
2007,11,07,13,12,95.50
2007,11,07,13,13,89.70
2007,11,07,13,14,82.70
2007,11,07,13,15,77.90
2007,11,07,13,16,74.90
2007,11,07,13,17,74.00
2007,11,07,13,18,75.70
2007,11,07,13,19,76.20
2007,11,07,13,20,77.00
2007,11,07,13,21,75.80
2007,11,07,13,22,72.80
2007,11,07,13,23,70.60
2007,11,07,13,24,70.00
2007,11,07,13,25,71.70
2007,11,07,13,26,69.70
2007,11,07,13,27,68.10
2007,11,07,13,28,67.00
2007,11,07,13,29,67.00
2007,11,07,13,30,68.80
2007,11,07,13,31,70.70
2007,11,07,13,32,74.00
2007,11,07,13,33,74.00
2007,11,07,13,34,75.20
2007,11,07,13,35,78.10
2007,11,07,13,36,84.10
2007,11,07,13,37,91.10
2007,11,07,13,38,97.20
2007,11,07,13,39,102.00
2007,11,07,13,40,109.60
2007,11,07,13,41,113.20
2007,11,07,13,42,106.90
2007,11,07,13,43,98.90
2007,11,07,13,44,92.40
2007,11,07,13,45,85.40
2007,11,07,13,46,78.90
2007,11,07,13,47,72.80
2007,11,07,13,48,70.00
2007,11,07,13,49,70.50
2007,11,07,13,50,72.80
2007,11,07,13,51,74.00
2007,11,07,13,52,75.40
2007,11,07,13,53,78.50
2007,11,07,13,54,78.80
2007,11,07,13,55,76.70
2007,11,07,13,56,75.20
2007,11,07,13,57,74.00
2007,11,07,13,58,74.00
2007,11,07,13,59,74.00
2007,11,07,14,00,74.00
2007,11,07,14,01,74.00
2007,11,07,14,02,74.00
2007,11,07,14,03,74.00
2007,11,07,14,04,74.00
2007,11,07,14,05,70.60
2007,11,07,14,06,68.60
2007,11,07,14,07,64.50
2007,11,07,14,08,62.50
2007,11,07,14,09,60.80
2007,11,07,14,10,58.50
2007,11,07,14,11,56.00
2007,11,07,14,12,53.80
2007,11,07,14,13,52.40
2007,11,07,14,14,50.00
2007,11,07,14,15,49.00
2007,11,07,14,16,45.60
2007,11,07,14,17,44.00
2007,11,07,14,18,44.00
2007,11,07,14,19,45.00
2007,11,07,14,20,48.10
2007,11,07,14,21,50.40
2007,11,07,14,22,51.00
2007,11,07,14,23,49.20
2007,11,07,14,24,48.60
2007,11,07,14,25,47.70
2007,11,07,14,26,50.10
2007,11,07,14,27,52.40
2007,11,07,14,28,51.30
2007,11,07,14,29,48.80
2007,11,07,14,30,47.00
2007,11,07,14,31,46.60
2007,11,07,14,32,46.00
2007,11,07,14,33,46.00
2007,11,07,14,34,46.00
2007,11,07,14,35,47.20
2007,11,07,14,36,49.50
2007,11,07,14,37,51.00
2007,11,07,14,38,52.20
2007,11,07,14,39,53.70
2007,11,07,14,40,54.00
2007,11,07,14,41,56.20
2007,11,07,14,42,57.50
2007,11,07,14,43,54.70
2007,11,07,14,44,50.70
2007,11,07,14,45,47.50
2007,11,07,14,46,47.00
2007,11,07,14,47,46.80
2007,11,07,14,48,45.40
2007,11,07,14,49,42.30
2007,11,07,14,50,39.40
2007,11,07,14,51,39.00
2007,11,07,14,52,40.00
2007,11,07,14,53,42.40
2007,11,07,14,54,44.00
2007,11,07,14,55,44.90
2007,11,07,14,56,44.70
2007,11,07,14,57,40.80
2007,11,07,14,58,39.90
2007,11,07,14,59,38.20
2007,11,07,15,00,34.40
2007,11,07,15,01,32.50
2007,11,07,15,02,30.80
2007,11,07,15,03,28.40
2007,11,07,15,04,26.10
2007,11,07,15,05,26.00
2007,11,07,15,06,26.70
2007,11,07,15,07,28.00
2007,11,07,15,08,29.40
2007,11,07,15,09,30.00
2007,11,07,15,10,30.00
2007,11,07,15,11,30.50
2007,11,07,15,12,32.00
2007,11,07,15,13,32.50
2007,11,07,15,14,33.00
2007,11,07,15,15,34.70
2007,11,07,15,16,35.00
2007,11,07,15,17,35.50
2007,11,07,15,18,37.80
2007,11,07,15,19,39.60
2007,11,07,15,20,41.50
2007,11,07,15,21,43.80
2007,11,07,15,22,44.30
2007,11,07,15,23,46.30
2007,11,07,15,24,47.00
2007,11,07,15,25,47.00
2007,11,07,15,26,46.30
2007,11,07,15,27,42.40
2007,11,07,15,28,38.70
2007,11,07,15,29,37.60
2007,11,07,15,30,39.00
2007,11,07,15,31,39.00
2007,11,07,15,32,35.90
2007,11,07,15,33,32.20
2007,11,07,15,34,27.60
2007,11,07,15,35,25.70
2007,11,07,15,36,25.00
2007,11,07,15,37,25.00
2007,11,07,15,38,25.00
2007,11,07,15,39,24.90
2007,11,07,15,40,23.00
2007,11,07,15,41,23.00
2007,11,07,15,42,21.90
2007,11,07,15,43,21.00
2007,11,07,15,44,19.40
2007,11,07,15,45,18.90
2007,11,07,15,46,18.00
2007,11,07,15,47,17.30
2007,11,07,15,48,16.00
2007,11,07,15,49,14.60
2007,11,07,15,50,14.00
2007,11,07,15,51,14.00
2007,11,07,15,52,14.00
2007,11,07,15,53,14.00
2007,11,07,15,54,14.00
2007,11,07,15,55,14.00
2007,11,07,15,56,12.40
2007,11,07,15,57,12.00
2007,11,07,15,58,12.00
2007,11,07,15,59,12.00
2007,11,07,16,00,11.40
2007,11,07,16,01,11.00
2007,11,07,16,02,11.00
2007,11,07,16,03,11.00
2007,11,07,16,04,11.30
2007,11,07,16,05,12.00
2007,11,07,16,06,11.40
2007,11,07,16,07,9.70
2007,11,07,16,08,9.00
2007,11,07,16,09,7.30
2007,11,07,16,10,9.00
2007,11,07,16,11,9.00
2007,11,07,16,12,9.00
2007,11,07,16,13,9.00
2007,11,07,16,14,9.00
2007,11,07,16,15,9.00
2007,11,07,16,16,9.00
2007,11,07,16,17,9.00
2007,11,07,16,18,10.20
2007,11,07,16,19,11.00
2007,11,07,16,20,11.00
2007,11,07,16,21,11.00
2007,11,07,16,22,11.40
2007,11,07,16,23,11.50
2007,11,07,16,24,11.00
2007,11,07,16,25,11.00
2007,11,07,16,26,11.00
2007,11,07,16,27,11.00
2007,11,07,16,28,11.00
2007,11,07,16,29,11.00
2007,11,07,16,30,11.00
2007,11,07,16,31,11.00
2007,11,07,16,32,11.00
2007,11,07,16,33,11.00
2007,11,07,16,34,11.00
2007,11,07,16,35,9.80
2007,11,07,16,36,9.00
2007,11,07,16,37,9.00
2007,11,07,16,38,7.10
2007,11,07,16,39,6.60
2007,11,07,16,40,5.00
2007,11,07,16,41,5.00
2007,11,07,16,42,1.70
2007,11,07,16,43,0.00
2007,11,07,16,44,0.00
2007,11,07,16,45,0.00
2007,11,07,16,46,0.00
2007,11,07,16,47,0.00
2007,11,07,16,48,0.00
2007,11,07,16,49,0.00
2007,11,07,16,50,0.00
2007,11,07,16,51,0.00
2007,11,07,16,52,0.00
2007,11,07,16,53,0.00
2007,11,07,16,54,0.00
2007,11,07,16,55,0.00
2007,11,07,16,56,0.00
2007,11,07,16,57,0.00
2007,11,07,16,58,0.00
2007,11,07,16,59,0.00
2007,11,07,17,00,0.00
2007,11,07,17,01,0.00
2007,11,07,17,02,0.00
2007,11,07,17,03,0.00
2007,11,07,17,04,0.00
2007,11,07,17,05,0.00
2007,11,07,17,06,0.00
2007,11,07,17,07,0.00
2007,11,07,17,08,0.00
2007,11,07,17,09,0.00
2007,11,07,17,10,0.00
2007,11,07,17,11,0.00
2007,11,07,17,12,0.00
2007,11,07,17,13,0.00
2007,11,07,17,14,0.00
2007,11,07,17,15,0.00
2007,11,07,17,16,0.00
2007,11,07,17,17,0.00
2007,11,07,17,18,0.00
2007,11,07,17,19,0.00
2007,11,07,17,20,0.00
2007,11,07,17,21,0.00
2007,11,07,17,22,0.00
2007,11,07,17,23,0.00
2007,11,07,17,24,0.00
2007,11,07,17,25,0.00
2007,11,07,17,26,0.00
2007,11,07,17,27,0.00
2007,11,07,17,28,0.00
2007,11,07,17,29,0.00
2007,11,07,17,30,0.00
2007,11,07,17,31,0.00
2007,11,07,17,32,0.00
2007,11,07,17,33,0.00
2007,11,07,17,34,0.00
2007,11,07,17,35,0.00
2007,11,07,17,36,0.00
2007,11,07,17,37,0.00
2007,11,07,17,38,0.00
2007,11,07,17,39,0.00
2007,11,07,17,40,0.00